Location: Ernez
(36.4595°N, 29.8755°E)
Time: 08:25:38
(UTC+00:00)

BREEZE-M DEB (TANK) - Pass Details

Date: 13 November 2025
Orbit: 285 x 18364 km, 52.5° (Epoch: 04 December)

Event Time Altitude Azimuth Distance (km) Brightness Sun altitude
Rises 15:47:26 0° 262° (W) 1,937 7.8 -11.2°
Reaches altitude 10° 15:49:06 10° 282° (WNW) 1,208 5.7 -11.5°
Maximum altitude 15:50:58 22° 340° (NNW) 945 4.1 -11.9°
Drops below altitude 10° 15:54:11 10° 34° (NE) 2,163 5.4 -12.5°
Enters shadow 15:54:25 - 36° (NE) 2,278 5.5 -12.5°
